Voltar ao catálogo

COSMOS 2251 DEB

AtivoLEO
NORAD 34846·DEBRIS·🇷🇺 Russia

Lançado Jun 16, 1993 de Plesetsk Cosmodrome

Loading…

Próximas Passagens (próximas 24 horas)

TLE

AtualizadoSource: Space-Track

Época: Sep 14, 2026, 08:26 UTC

1 34846U 93036ABQ 26257.35181372  .00001231  00000-0  33387-3 0  9992
2 34846  74.0275 105.7095 0025275 109.9328 250.4558 14.48509017913935

Acompanhe COSMOS 2251 DEB em tempo real com AllMySat

Download on the App Store